User: anonymous   Login
Location: Unspecified
(0.0000°N, 0.0000°E)
Time: 05:58:34
(UTC+02:00)
Language:

Cosmos 2219 - Orbit

View from above orbital plane
View from above orbital plane
View from above satellite
View from above satellite

Ground track
Ground track

The orbit data is extracted from the following two-line orbital elements,

1 22219U 92076A   16178.68882740 -.00000297  00000-0 -13242-3 0  9991
2 22219  71.0592 220.2895 0019679 218.7370 141.2342 14.13593654217974
Epoch (UTC): 26 June 2016 16:31:54
Eccentricity: 0.0019679
inclination: 71.0592°
perigee height: 833 km
apogee height: 861 km
right ascension of ascending node: 220.2895°
argument of perigee: 218.7370°
revolutions per day: 14.13593654
mean anomaly at epoch: 141.2342°
orbit number at epoch: 21797

The dashed part of the orbit path shows where the satellite is in the earth's shadow,  

DLR